Location: Clegg Observatory
(38.9178°N, 78.6069°W)
Time: 12:49:47
(UTC-04:00)

Cosmos 1151 Rocket - Visible Passes

Search period start: 21 May 2018 00:00
Search period end: 31 May 2018 00:00
Orbit: 594 x 615 km, 82.5° (Epoch: 21 May)

Date Brightness Start Highest point End Pass type
(mag) Time Alt. Az. Time Alt. Az. Time Alt. Az.
21 May 5.0 04:09:18 10° NNE 04:13:11 29° ENE 04:16:59 10° SE visible
22 May 3.9 04:21:44 10° N 04:26:00 50° E 04:30:13 10° SSE visible
23 May 3.0 04:34:21 10° N 04:38:45 88° E 04:43:06 10° S visible
24 May 5.9 03:11:43 10° NE 03:13:32 12° ENE 03:15:20 10° E visible
24 May 3.2 04:47:10 10° NNW 04:51:26 53° W 04:55:39 10° S visible
25 May 5.4 03:23:13 10° NNE 03:26:29 20° ENE 03:29:42 10° ESE visible
25 May 3.9 05:00:13 10° NNW 05:04:03 30° W 05:07:51 10° SSW visible
26 May 4.6 03:35:23 10° NNE 03:39:21 33° ENE 03:43:16 10° SE visible
26 May 4.6 05:13:37 10° NW 05:16:37 18° W 05:19:36 10° SW visible
27 May 3.6 03:47:51 10° N 03:52:10 57° E 03:55:32 16° SSE visible
28 May 2.9 04:00:31 10° N 04:04:53 82° W 04:07:35 23° S visible
29 May 5.7 02:37:30 10° NE 02:39:44 14° ENE 02:41:57 10° ESE visible
29 May 3.3 04:13:23 10° NNW 04:17:34 46° W 04:19:41 25° SSW visible
30 May 5.1 02:49:13 10° NNE 02:52:39 22° ENE 02:55:02 15° ESE visible
30 May 4.1 04:26:30 10° NNW 04:30:10 27° W 04:31:50 21° SW visible
